SL-14 DEB, 45274

Orbit data source: Space-Track

SL-14 DEB, 45274 is space debris in LEO originally from a launch on Thu, 15 Aug 1991 UTC launched from the Plesetsk Missile And Space Complex (PKMTR). Debris objects in space refer to the collection of defunct objects orbiting the Earth. Examples of debris include non-operational satellites, rocket bodies, and fragments generated from explosions, collisions, or faulty payload assembly.

Loading next visibility...
Identifier
45274, 1991-056L
Orbit
LEO
Country
Flag of CISCIS
Related business
Manufacturer
Unknown
Mission
Spacecraft
Bus & Motor
Unknown
Mass
Unknown
Launch date (UTC)
1991-08-15 (35 years ago)
Launch vehicle
Unknown
Launch site
Plesetsk Missile And Space Complex (PKMTR)
Object type
Payload
Rocket body
Debris
Shape & HBR
Unknown shape, 0.2 m
Radar Cross Section
Medium (>0.1 m² and <1 m²)

Expand to show TLE details & history
Last TLE update: 13 hours ago

TLE from 13 hours ago
0 SL-14 DEB
1 45274U 91056L   26130.12948675  .00000157  00000-0  37191-3 0  9994
2 45274  82.5373 162.0156 0025892 236.9019 122.9618 13.17732239299714
Epoch: 2026-05-10T03:06Z
TLE epoch observation values (Epoch: 2026-05-10T03:06:27.655Z)
Latitude
-0.00001°
Longitude
-112.53663°
Altitude
1,206.906 km
Speed
7.246 km/s
True Right ascension
10h 48m 03s
True Declination
0° 00' 00"
Sunlit
Object was in daylight at epoch
Visualization orbit readout
Latitude
Unknown
Longitude
Unknown
Altitude
Unknown
Speed
Unknown
Apparent Right ascension
Unknown
Apparent Declination
Unknown
Sunlit
N/A
Visualization observer readout
Local Sidereal Time
00:02:57
Azimuth
Unknown
Elevation
Unknown
Doppler factor
Unknown
Orbital elements
Apogee altitude
1,210.236 km
Perigee altitude
1,171.042 km
Semi-major axis
7,568.776 km
Eccentricity
0.00259
Inclination
82.5373°
RAAN
162.0156°
Arg. of periapsis
236.9019°
True anomaly
123.2103°
Mean anomaly
122.9618°
Eccentric anomaly
123.0861°
Mean motion
3.29613 °/min
Orbital period
109.22 mins
BSTAR
0.00037191
Loading maneuver chart data...
Computing Atmospheric mass density...
Loading historical data...
Loading historical data...
Loading historical data...
Loading historical data...
Loading historical data...
Loading historical data...
Loading historical data...

Documentation

Showing up to 5 results
|